Drummond Island, MI

3:37 PM EST on November 22, 2017 (GMT -0500)
Drummond Island

Weather History for KDRM - November, 2012

Change the Weather History Date:

Friday, November 9, 2012

  Actual Average (KCIU) Record (KCIU)
Temperature  
Mean Temperature 44 °F -  
Max Temperature 47 °F 41 °F 62 °F (1999)
Min Temperature 41 °F 27 °F 6 °F (1991)
Degree Days  
Heating Degree Days 21    
Moisture  
Dew Point 39 °F    
Average Humidity 83    
Maximum Humidity 92    
Minimum Humidity 75    
Precipitation  
Precipitation 0.00 in - - ()
Sea Level Pressure  
Sea Level Pressure 30.09 in    
Wind  
Wind Speed 2 mph (NNW)    
Max Wind Speed 6 mph    
Max Gust Speed -    
Visibility 9 miles    
Events      
Averages and records for this station are not official NWS values.
T = Trace of Precipitation, MM = Missing Value Source: NWS Daily Summary

Daily Weather History Graph

Daily Weather History Graph

Search for Another Location

Airport or City:

Trip Planner

Search our weather history database for the weather conditions in past years. The results will help you decide how hot, cold, wet, or windy it might be!

Date:

Astronomy

Nov. 09, 2012 Rise Set
Actual Time 7:27 AM EST 5:09 PM EST
Civil Twilight 6:55 AM EST 5:41 PM EST
Nautical Twilight 6:19 AM EST 6:17 PM EST
Astronomical Twilight 5:44 AM EST 6:52 PM EST
Moon 2:10 AM EST (11/9) 2:35 PM EST (11/9)
Length of Visible Light 10h 45m
Length of Day
9h 41m
Waning Crescent, 23% of the Moon is Illuminated
Nov 9
Waning Crescent
Nov 13
New
Nov 20
First Quarter
Nov 28
Full
Dec 6
Last Quarter

Hourly Weather History & Observations

Time (EST) Temp. Windchill Dew Point Humidity Pressure Visibility Wind Dir Wind Speed Gust Speed Precip Events Conditions
12:16 AM 43.7 °F 41.1 °F 38.3 °F 81% 30.03 in 10.0 mi SW 4.6 mph - N/A   Overcast
12:35 AM 43.9 °F 42.3 °F 38.5 °F 81% 30.03 in 10.0 mi SW 3.5 mph - N/A   Overcast
12:56 AM 44.1 °F 41.5 °F 38.7 °F 81% 30.03 in 10.0 mi SW 4.6 mph - N/A   Overcast
1:16 AM 43.9 °F 41.3 °F 38.7 °F 82% 30.03 in 10.0 mi SW 4.6 mph - N/A   Overcast
1:35 AM 44.1 °F - 39.2 °F 83% 30.03 in 10.0 mi Calm Calm - N/A   Overcast
1:56 AM 43.3 °F - 38.8 °F 84% 30.03 in 10.0 mi Calm Calm - N/A   Mostly Cloudy
2:16 AM 42.6 °F - 39.2 °F 88% 30.03 in 10.0 mi Calm Calm - N/A   Scattered Clouds
2:35 AM 43.0 °F 41.3 °F 39.2 °F 86% 30.03 in 10.0 mi WSW 3.5 mph - N/A   Mostly Cloudy
2:56 AM 43.2 °F 41.5 °F 39.4 °F 86% 30.04 in 10.0 mi WSW 3.5 mph - N/A   Mostly Cloudy
3:16 AM 42.8 °F - 39.2 °F 87% 30.04 in 7.0 mi Calm Calm - N/A   Scattered Clouds
3:36 AM 42.8 °F - 39.2 °F 87% 30.04 in 7.0 mi Calm Calm - N/A   Mostly Cloudy
3:56 AM 43.0 °F - 39.4 °F 87% 30.04 in 7.0 mi Calm Calm - N/A   Overcast
4:16 AM 42.8 °F - 39.4 °F 88% 30.04 in 7.0 mi Calm Calm - N/A   Overcast
4:36 AM 43.0 °F - 39.2 °F 86% 30.05 in 7.0 mi Calm Calm - N/A   Overcast
4:56 AM 42.8 °F - 39.4 °F 88% 30.05 in 7.0 mi Calm Calm - N/A   Overcast
5:16 AM 43.0 °F - 39.4 °F 87% 30.06 in 7.0 mi Calm Calm - N/A   Overcast
5:36 AM 43.0 °F - 39.2 °F 86% 30.06 in 7.0 mi Calm Calm - N/A   Overcast
5:56 AM 43.2 °F - 39.2 °F 86% 30.06 in 7.0 mi Calm Calm - N/A   Overcast
6:15 AM 43.0 °F - 39.2 °F 86% 30.06 in 7.0 mi Calm Calm - N/A   Overcast
6:56 AM 42.1 °F - 39.2 °F 90% 30.06 in 7.0 mi Calm Calm - N/A   Overcast
7:15 AM 42.1 °F - 39.6 °F 91% 30.07 in 7.0 mi Calm Calm - N/A   Overcast
7:36 AM 41.5 °F - 39.4 °F 92% 30.07 in 5.0 mi Calm Calm - N/A   Overcast
7:56 AM 42.1 °F - 39.0 °F 89% 30.08 in 7.0 mi Calm Calm - N/A   Overcast
8:16 AM 42.3 °F - 38.8 °F 88% 30.08 in 7.0 mi Calm Calm - N/A   Overcast
8:36 AM 42.8 °F - 38.5 °F 85% 30.09 in 7.0 mi Calm Calm - N/A   Overcast
8:56 AM 43.5 °F - 38.7 °F 83% 30.09 in 7.0 mi Calm Calm - N/A   Overcast
9:16 AM 44.1 °F - 38.5 °F 81% 30.09 in 10.0 mi Calm Calm - N/A   Mostly Cloudy
9:36 AM 44.4 °F - 38.5 °F 80% 30.09 in 10.0 mi Calm Calm - N/A   Scattered Clouds
9:56 AM 44.4 °F - 38.3 °F 79% 30.10 in 10.0 mi Calm Calm - N/A   Mostly Cloudy
10:16 AM 44.8 °F - 38.3 °F 78% 30.09 in 10.0 mi Calm Calm - N/A   Overcast
10:36 AM 45.5 °F - 38.7 °F 77% 30.09 in 10.0 mi Calm Calm - N/A   Overcast
10:56 AM 46.6 °F - 39.4 °F 76% 30.10 in 10.0 mi Calm Calm - N/A   Overcast
11:16 AM 46.8 °F - 39.4 °F 75% 30.11 in 10.0 mi Calm Calm - N/A   Overcast
11:35 AM 47.1 °F - 39.6 °F 75% 30.10 in 10.0 mi NW 3.5 mph - N/A   Mostly Cloudy
11:56 AM 46.0 °F 43.9 °F 39.2 °F 77% 30.10 in 10.0 mi WNW 4.6 mph - N/A   Overcast
12:16 PM 46.0 °F 44.8 °F 39.4 °F 78% 30.10 in 10.0 mi West 3.5 mph - N/A   Overcast
12:35 PM 46.4 °F 45.2 °F 40.3 °F 79% 30.10 in 10.0 mi NW 3.5 mph - N/A   Overcast
12:56 PM 46.4 °F 45.2 °F 40.3 °F 79% 30.09 in 10.0 mi NNW 3.5 mph - N/A   Overcast
1:16 PM 46.6 °F - 40.5 °F 79% 30.09 in 10.0 mi Calm Calm - N/A   Overcast
1:35 PM 46.2 °F - 40.6 °F 81% 30.08 in 10.0 mi Calm Calm - N/A   Overcast
1:56 PM 45.5 °F - 40.3 °F 82% 30.08 in 10.0 mi Calm Calm - N/A   Overcast
2:16 PM 46.8 °F - 40.1 °F 78% 30.08 in 10.0 mi Calm Calm - N/A   Overcast
2:36 PM 46.9 °F - 40.1 °F 77% 30.08 in 10.0 mi WNW 3.5 mph - N/A   Overcast
2:56 PM 46.8 °F - 40.5 °F 79% 30.08 in 10.0 mi WNW 4.6 mph - N/A   Overcast
3:16 PM 46.8 °F - 40.5 °F 79% 30.08 in 10.0 mi Calm Calm - N/A   Overcast
3:36 PM 46.8 °F - 40.6 °F 79% 30.08 in 10.0 mi Calm Calm - N/A   Overcast
3:56 PM 46.6 °F - 41.0 °F 81% 30.08 in 10.0 mi Calm Calm - N/A   Overcast
4:15 PM 46.6 °F - 40.8 °F 80% 30.09 in 10.0 mi Calm Calm - N/A   Overcast
4:36 PM 46.2 °F - 40.3 °F 80% 30.09 in 10.0 mi Calm Calm - N/A   Overcast
4:56 PM 45.0 °F - 40.5 °F 84% 30.09 in 10.0 mi Calm Calm - N/A   Overcast
5:15 PM 44.6 °F - 40.6 °F 86% 30.09 in 10.0 mi Calm Calm - N/A   Overcast
5:36 PM 44.8 °F - 40.6 °F 85% 30.10 in 10.0 mi Calm Calm - N/A   Overcast
5:56 PM 43.9 °F - 40.5 °F 88% 30.11 in 10.0 mi Calm Calm - N/A   Overcast
6:16 PM 43.9 °F - 41.0 °F 90% 30.12 in 10.0 mi Calm Calm - N/A   Overcast
6:36 PM 43.7 °F - 40.6 °F 89% 30.12 in 10.0 mi Calm Calm - N/A   Overcast
6:56 PM 43.7 °F - 40.5 °F 88% 30.13 in 10.0 mi Calm Calm - N/A   Overcast
7:16 PM 43.7 °F - 40.3 °F 88% 30.14 in 10.0 mi Calm Calm - N/A   Overcast
7:36 PM 42.8 °F - 40.1 °F 90% 30.15 in 10.0 mi Calm Calm - N/A   Overcast
7:56 PM 43.3 °F - 40.3 °F 89% 30.15 in 10.0 mi Calm Calm - N/A   Overcast
8:16 PM 43.3 °F - 40.1 °F 88% 30.14 in 10.0 mi Calm Calm - N/A   Overcast
8:36 PM 43.3 °F 41.7 °F 39.4 °F 86% 30.15 in 10.0 mi NE 3.5 mph - N/A   Overcast
8:55 PM 43.3 °F - 39.2 °F 85% 30.15 in 10.0 mi Calm Calm - N/A   Overcast
9:16 PM 43.3 °F 40.7 °F 38.5 °F 83% 30.15 in 10.0 mi ENE 4.6 mph - N/A   Overcast
9:36 PM 43.2 °F 40.5 °F 37.9 °F 82% 30.15 in 10.0 mi NE 4.6 mph - N/A   Overcast
9:55 PM 43.0 °F 39.5 °F 37.6 °F 81% 30.15 in 10.0 mi NE 5.8 mph - N/A   Overcast
10:16 PM 43.0 °F 40.3 °F 36.9 °F 79% 30.15 in 10.0 mi NE 4.6 mph - N/A   Overcast
10:36 PM 42.8 °F 39.3 °F 36.7 °F 79% 30.16 in 10.0 mi ENE 5.8 mph - N/A   Overcast
10:55 PM 42.8 °F 40.1 °F 36.5 °F 78% 30.16 in 10.0 mi ENE 4.6 mph - N/A   Overcast
11:16 PM 42.4 °F - 36.5 °F 79% 30.16 in 10.0 mi Calm Calm - N/A   Overcast
11:36 PM 42.3 °F 40.5 °F 36.5 °F 80% 30.17 in 10.0 mi NE 3.5 mph - N/A   Overcast
11:56 PM 41.9 °F - 36.1 °F 80% 30.18 in 10.0 mi Calm Calm - N/A   Overcast